Location: Boise
(43.6140°N, 116.2030°W)
Time: 08:07:50
(UTC-06:00)

ISS - Visible Passes

Search period start: 24 March 2017 00:00
Search period end: 03 April 2017 00:00
Orbit: 399 x 409 km, 51.6° (Epoch: 24 March)

Date Brightness Start Highest point End Pass type
(mag) Time Alt. Az. Time Alt. Az. Time Alt. Az.
24 Mar -1.5 05:57:03 15° SSE 05:57:03 15° SSE 05:57:48 10° SSE visible
26 Mar -1.7 20:49:35 10° SSE 20:50:45 11° SE 20:51:06 11° SE visible
26 Mar -1.0 22:23:29 10° SW 22:23:50 12° SW 22:23:50 12° SW visible
27 Mar -3.6 21:31:15 10° SW 21:34:24 47° SE 21:34:41 45° ESE visible
28 Mar -2.7 20:39:22 10° SSW 20:42:07 25° SE 20:44:53 10° E visible
28 Mar -2.6 22:15:17 10° W 22:17:59 42° NW 22:17:59 42° NW visible
29 Mar -3.8 21:22:43 10° WSW 21:25:58 77° NNW 21:28:19 18° NE visible
29 Mar -0.6 23:00:08 10° WNW 23:00:59 15° WNW 23:00:59 15° WNW visible
30 Mar -2.0 22:07:18 10° W 22:10:12 29° NNW 22:11:07 25° NNE visible
31 Mar -2.6 21:14:32 10° W 21:17:37 40° NNW 21:20:44 10° NE visible
31 Mar -1.0 22:52:12 10° NW 22:53:44 18° NNW 22:53:44 18° NNW visible
01 Apr -1.6 21:59:23 10° WNW 22:02:00 22° N 22:03:32 16° NNE visible
02 Apr -1.9 21:06:31 10° WNW 21:09:19 26° NNW 21:12:10 10° NE visible
02 Apr -1.3 22:44:02 10° NW 22:45:54 19° NNW 22:45:54 19° NNW visible
